Station Nord

KL  EN  DA
ASIAQ
Weather Now GREENLAND SURVEY
Updated [WGT/WGST] Temperature [°C] Wind [m/s] Air pressure [hPa] Relative humidity [%] Precipitation [mm]
Present Wind chill Speed Max
21.01 20:00-28,70,0n/an/a97676n/a
21.01 19:00-30,10,0n/an/a97875n/a
21.01 18:00-30,50,0n/an/a98074n/a
21.01 17:00-30,80,0n/an/a98174n/a
21.01 16:00-30,90,0n/an/a98274n/a
21.01 15:00-30,00,0n/an/a98375n/a
21.01 14:00-30,10,0n/an/a98474n/a
21.01 13:00-31,10,0n/an/a98474n/a
21.01 12:00-31,70,0n/an/a98573n/a
21.01 11:00-32,60,0n/an/a98673n/a
21.01 10:00-32,50,0n/an/a98773n/a
21.01 09:00-32,60,0n/an/a98773n/a
21.01 08:00-32,30,0n/an/a98873n/a
21.01 07:00-31,90,0n/an/a98974n/a
21.01 06:00-29,90,0n/an/a98975n/a
21.01 05:00-33,30,0n/an/a99072n/a
21.01 04:00-31,40,0n/an/a99074n/a
21.01 03:00-32,60,0n/an/a99173n/a
21.01 02:00-34,30,0n/an/a99272n/a
21.01 01:00-32,90,0n/an/a99273n/a
21.01 00:00-33,20,0n/an/a99372n/a
20.01 23:00-32,20,0n/an/a99373n/a
20.01 22:00-31,10,0n/an/a99474n/a
20.01 21:00-33,40,0n/an/a99572n/a
20.01 20:00-34,40,0n/an/a99572n/a
Position: (81.603333333,-16.66333333)

[Back]